Time,TemperatureF,DewpointF,PressureIn,WindDirection,WindDirectionDegrees,WindSpeedMPH,WindSpeedGustMPH,Humidity,HourlyPrecipIn,Conditions,Clouds,dailyrainin,SoftwareType,DateUTC
2013-09-11 00:01:00,76.0,67.1,29.94,SSW,211,0.0,3.0,74,0.00,,---,0.00,VWS V14.01,2013-09-11 04:01:00,
2013-09-11 00:02:00,76.0,67.1,29.94,SSW,211,1.0,3.0,74,0.00,,---,0.00,VWS V14.01,2013-09-11 04:02:00,
2013-09-11 00:07:00,76.1,67.2,29.94,SSW,211,0.0,4.0,74,0.00,,---,0.00,VWS V14.01,2013-09-11 04:07:00,
2013-09-11 00:12:00,76.1,67.2,29.94,SSW,211,0.0,3.0,74,0.00,,---,0.00,VWS V14.01,2013-09-11 04:12:00,
2013-09-11 00:17:00,76.0,67.1,29.94,SSW,211,2.0,2.0,74,0.00,,---,0.00,VWS V14.01,2013-09-11 04:17:00,
2013-09-11 00:22:00,75.8,67.3,29.94,SSW,211,2.0,2.0,75,0.00,,---,0.00,VWS V14.01,2013-09-11 04:22:00,
2013-09-11 00:27:00,75.5,67.0,29.94,SSW,211,1.0,3.0,75,0.00,,---,0.00,VWS V14.01,2013-09-11 04:27:00,
2013-09-11 00:32:00,75.2,67.1,29.94,SSW,211,0.0,1.0,76,0.00,,---,0.00,VWS V14.01,2013-09-11 04:32:00,
2013-09-11 00:37:00,74.9,66.8,29.93,SSW,211,0.0,3.0,76,0.00,,---,0.00,VWS V14.01,2013-09-11 04:37:00,
2013-09-11 00:42:00,74.7,66.6,29.93,SSW,204,2.0,5.0,76,0.00,,---,0.00,VWS V14.01,2013-09-11 04:42:00,
2013-09-11 00:47:00,74.8,66.7,29.94,SSW,205,0.0,5.0,76,0.00,,---,0.00,VWS V14.01,2013-09-11 04:47:00,
2013-09-11 00:52:00,74.9,66.8,29.93,SSW,212,3.0,6.0,76,0.00,,---,0.00,VWS V14.01,2013-09-11 04:52:00,
2013-09-11 00:57:00,75.2,67.1,29.93,SSW,210,2.0,6.0,76,0.00,,---,0.00,VWS V14.01,2013-09-11 04:57:00,
2013-09-11 01:02:00,75.4,67.3,29.94,SSW,200,3.0,6.0,76,0.00,,---,0.00,VWS V14.01,2013-09-11 05:02:00,
2013-09-11 01:07:00,75.6,67.1,29.94,SSW,203,3.0,6.0,75,0.00,,---,0.00,VWS V14.01,2013-09-11 05:07:00,
2013-09-11 01:12:00,75.7,67.2,29.93,SSW,211,2.0,7.0,75,0.00,,---,0.00,VWS V14.01,2013-09-11 05:12:00,
2013-09-11 01:17:00,75.8,67.3,29.94,SSW,194,8.0,8.0,75,0.00,,---,0.00,VWS V14.01,2013-09-11 05:17:00,
2013-09-11 01:22:00,75.9,67.0,29.94,SSW,213,5.0,7.0,74,0.00,,---,0.00,VWS V14.01,2013-09-11 05:22:00,
2013-09-11 01:27:00,76.0,67.1,29.94,SSW,211,8.0,8.0,74,0.00,,---,0.00,VWS V14.01,2013-09-11 05:27:00,
2013-09-11 01:32:00,76.1,67.2,29.94,SSW,208,3.0,7.0,74,0.00,,---,0.00,VWS V14.01,2013-09-11 05:32:00,
2013-09-11 01:37:00,76.2,67.3,29.94,SW,224,3.0,10.0,74,0.00,,---,0.00,VWS V14.01,2013-09-11 05:37:00,
2013-09-11 01:42:00,76.2,67.3,29.94,SSW,201,2.0,7.0,74,0.00,,---,0.00,VWS V14.01,2013-09-11 05:42:00,
2013-09-11 01:48:00,76.2,67.3,29.94,South,188,1.0,7.0,74,0.00,,---,0.00,VWS V14.01,2013-09-11 05:48:00,
2013-09-11 01:53:00,76.3,67.0,29.94,SSW,198,4.0,4.0,73,0.00,,---,0.00,VWS V14.01,2013-09-11 05:53:00,
2013-09-11 01:58:00,76.2,67.3,29.94,SSW,206,0.0,0.0,74,0.00,,---,0.00,VWS V14.01,2013-09-11 05:58:00,
2013-09-11 02:03:00,76.1,67.2,29.94,SSW,192,5.0,5.0,74,0.00,,---,0.00,VWS V14.01,2013-09-11 06:03:00,
2013-09-11 02:08:00,76.0,67.1,29.94,SW,219,5.0,8.0,74,0.00,,---,0.00,VWS V14.01,2013-09-11 06:08:00,
2013-09-11 02:13:00,75.8,66.9,29.94,SSW,194,3.0,3.0,74,0.00,,---,0.00,VWS V14.01,2013-09-11 06:13:00,
2013-09-11 02:18:00,75.8,66.9,29.94,SSW,205,6.0,6.0,74,0.00,,---,0.00,VWS V14.01,2013-09-11 06:18:00,
2013-09-11 02:23:00,75.8,66.9,29.94,SSW,212,4.0,4.0,74,0.00,,---,0.00,VWS V14.01,2013-09-11 06:23:00,
2013-09-11 02:28:00,75.8,66.9,29.94,SSW,213,5.0,6.0,74,0.00,,---,0.00,VWS V14.01,2013-09-11 06:28:00,
2013-09-11 02:33:00,75.8,66.9,29.94,SSW,213,4.0,4.0,74,0.00,,---,0.00,VWS V14.01,2013-09-11 06:33:00,
2013-09-11 02:38:00,75.7,67.2,29.94,SW,225,4.0,5.0,75,0.00,,---,0.00,VWS V14.01,2013-09-11 06:38:00,
2013-09-11 02:43:00,75.7,67.2,29.94,SSW,194,4.0,5.0,75,0.00,,---,0.00,VWS V14.01,2013-09-11 06:43:00,
2013-09-11 02:48:00,75.6,67.1,29.94,SSW,200,2.0,3.0,75,0.00,,---,0.00,VWS V14.01,2013-09-11 06:48:00,
2013-09-11 02:53:00,75.6,67.1,29.94,SSW,213,4.0,4.0,75,0.00,,---,0.00,VWS V14.01,2013-09-11 06:53:00,
2013-09-11 02:58:00,75.6,67.1,29.94,SW,217,6.0,6.0,75,0.00,,---,0.00,VWS V14.01,2013-09-11 06:58:00,
2013-09-11 03:03:00,75.5,67.0,29.94,SW,216,3.0,12.0,75,0.00,,---,0.00,VWS V14.01,2013-09-11 07:03:00,
2013-09-11 03:08:00,75.5,67.4,29.94,SSW,192,2.0,4.0,76,0.00,,---,0.00,VWS V14.01,2013-09-11 07:08:00,
2013-09-11 03:13:00,75.4,67.3,29.94,SSW,208,6.0,6.0,76,0.00,,---,0.00,VWS V14.01,2013-09-11 07:13:00,
2013-09-11 03:18:00,75.3,67.2,29.94,SSW,200,4.0,7.0,76,0.00,,---,0.00,VWS V14.01,2013-09-11 07:18:00,
2013-09-11 03:23:00,75.3,67.6,29.94,SSW,205,4.0,6.0,77,0.00,,---,0.00,VWS V14.01,2013-09-11 07:23:00,
2013-09-11 03:28:00,75.2,67.5,29.94,SSW,204,3.0,4.0,77,0.00,,---,0.00,VWS V14.01,2013-09-11 07:28:00,
2013-09-11 03:33:00,75.1,67.4,29.94,SSW,198,5.0,5.0,77,0.00,,---,0.00,VWS V14.01,2013-09-11 07:33:00,
2013-09-11 03:38:00,75.0,67.7,29.94,South,172,8.0,8.0,78,0.00,,---,0.00,VWS V14.01,2013-09-11 07:38:00,
2013-09-11 03:43:00,75.0,67.7,29.94,SSW,211,5.0,5.0,78,0.00,,---,0.00,VWS V14.01,2013-09-11 07:43:00,
2013-09-11 03:48:00,75.0,68.1,29.94,WSW,242,5.0,9.0,79,0.00,,---,0.00,VWS V14.01,2013-09-11 07:48:00,
2013-09-11 03:53:00,75.0,68.1,29.94,SW,219,3.0,7.0,79,0.00,,---,0.00,VWS V14.01,2013-09-11 07:53:00,
2013-09-11 03:58:00,74.9,68.3,29.94,SSW,196,5.0,5.0,80,0.00,,---,0.00,VWS V14.01,2013-09-11 07:58:00,
2013-09-11 04:03:00,74.9,68.3,29.93,SSW,192,5.0,5.0,80,0.00,,---,0.00,VWS V14.01,2013-09-11 08:03:00,
2013-09-11 04:08:00,74.9,68.3,29.94,SSW,204,5.0,5.0,80,0.00,,---,0.00,VWS V14.01,2013-09-11 08:08:00,
2013-09-11 04:13:00,74.9,68.7,29.94,SSW,203,4.0,4.0,81,0.00,,---,0.00,VWS V14.01,2013-09-11 08:13:00,
2013-09-11 04:18:00,74.9,68.7,29.93,SSW,204,4.0,4.0,81,0.00,,---,0.00,VWS V14.01,2013-09-11 08:18:00,
2013-09-11 04:23:00,74.8,68.6,29.94,SW,229,4.0,5.0,81,0.00,,---,0.00,VWS V14.01,2013-09-11 08:23:00,
2013-09-11 04:28:00,74.8,68.6,29.93,SW,217,3.0,4.0,81,0.00,,---,0.00,VWS V14.01,2013-09-11 08:28:00,
2013-09-11 04:33:00,74.9,68.7,29.93,SSW,213,4.0,4.0,81,0.00,,---,0.00,VWS V14.01,2013-09-11 08:33:00,
2013-09-11 04:38:00,74.9,68.7,29.94,SW,218,4.0,4.0,81,0.00,,---,0.00,VWS V14.01,2013-09-11 08:38:00,
2013-09-11 04:43:00,74.9,68.7,29.94,SSW,205,4.0,4.0,81,0.00,,---,0.00,VWS V14.01,2013-09-11 08:43:00,
2013-09-11 04:48:00,74.9,68.7,29.94,SSW,196,4.0,4.0,81,0.00,,---,0.00,VWS V14.01,2013-09-11 08:48:00,
2013-09-11 04:53:00,74.9,68.7,29.94,SW,217,3.0,7.0,81,0.00,,---,0.00,VWS V14.01,2013-09-11 08:53:00,
2013-09-11 04:58:00,74.9,68.7,29.94,SW,234,5.0,5.0,81,0.00,,---,0.00,VWS V14.01,2013-09-11 08:58:00,
2013-09-11 05:03:00,74.9,68.7,29.94,SW,229,4.0,9.0,81,0.00,,---,0.00,VWS V14.01,2013-09-11 09:03:00,
2013-09-11 05:08:00,74.8,68.6,29.94,WSW,237,3.0,3.0,81,0.00,,---,0.00,VWS V14.01,2013-09-11 09:08:00,
2013-09-11 05:13:00,74.8,68.6,29.94,SW,229,2.0,3.0,81,0.00,,---,0.00,VWS V14.01,2013-09-11 09:13:00,
2013-09-11 05:18:00,74.7,68.8,29.94,SW,222,1.0,3.0,82,0.00,,---,0.00,VWS V14.01,2013-09-11 09:18:00,
2013-09-11 05:23:00,74.6,68.8,29.94,SW,215,2.0,4.0,82,0.00,,---,0.00,VWS V14.01,2013-09-11 09:23:00,
2013-09-11 05:28:00,74.4,68.6,29.94,SW,222,4.0,4.0,82,0.00,,---,0.00,VWS V14.01,2013-09-11 09:28:00,
2013-09-11 05:33:00,74.4,68.6,29.94,SW,216,2.0,5.0,82,0.00,,---,0.00,VWS V14.01,2013-09-11 09:33:00,
2013-09-11 05:38:00,74.4,68.6,29.94,SW,217,4.0,5.0,82,0.00,,---,0.00,VWS V14.01,2013-09-11 09:38:00,
2013-09-11 05:43:00,74.4,68.6,29.94,SW,227,2.0,4.0,82,0.00,,---,0.00,VWS V14.01,2013-09-11 09:43:00,
2013-09-11 05:48:00,74.4,68.6,29.95,SW,225,6.0,6.0,82,0.00,,---,0.00,VWS V14.01,2013-09-11 09:48:00,
2013-09-11 05:53:00,74.3,68.4,29.94,SW,214,3.0,3.0,82,0.00,,---,0.00,VWS V14.01,2013-09-11 09:53:00,
2013-09-11 05:58:00,74.2,68.7,29.95,SSW,205,4.0,4.0,83,0.00,,---,0.00,VWS V14.01,2013-09-11 09:58:00,
2013-09-11 06:03:00,74.2,68.7,29.95,SSW,204,5.0,5.0,83,0.00,,---,0.00,VWS V14.01,2013-09-11 10:03:00,
2013-09-11 06:08:00,74.2,68.7,29.94,SW,217,3.0,7.0,83,0.00,,---,0.00,VWS V14.01,2013-09-11 10:08:00,
2013-09-11 06:13:00,74.2,68.7,29.94,SW,218,3.0,4.0,83,0.00,,---,0.00,VWS V14.01,2013-09-11 10:13:00,
2013-09-11 06:18:00,74.1,68.6,29.94,SSW,197,3.0,5.0,83,0.00,,---,0.00,VWS V14.01,2013-09-11 10:18:00,
2013-09-11 06:23:00,74.1,68.6,29.95,SW,214,3.0,4.0,83,0.00,,---,0.00,VWS V14.01,2013-09-11 10:23:00,
2013-09-11 06:28:00,74.1,68.6,29.95,SW,221,4.0,4.0,83,0.00,,---,0.00,VWS V14.01,2013-09-11 10:28:00,
2013-09-11 06:33:00,74.1,69.0,29.95,SW,221,8.0,8.0,84,0.00,,---,0.00,VWS V14.01,2013-09-11 10:33:00,
2013-09-11 06:38:00,74.0,68.9,29.95,SSW,198,4.0,6.0,84,0.00,,---,0.00,VWS V14.01,2013-09-11 10:38:00,
2013-09-11 06:44:00,74.0,68.9,29.95,SSW,208,4.0,6.0,84,0.00,,---,0.00,VWS V14.01,2013-09-11 10:44:00,
2013-09-11 06:49:00,73.9,68.8,29.95,SSW,202,3.0,8.0,84,0.00,,---,0.00,VWS V14.01,2013-09-11 10:49:00,
2013-09-11 06:54:00,73.9,68.8,29.95,SSW,213,5.0,5.0,84,0.00,,---,0.00,VWS V14.01,2013-09-11 10:54:00,
2013-09-11 06:59:00,73.8,68.7,29.95,SSW,212,2.0,3.0,84,0.00,,---,0.00,VWS V14.01,2013-09-11 10:59:00,
2013-09-11 07:04:00,73.7,68.6,29.95,SW,227,4.0,5.0,84,0.00,,---,0.00,VWS V14.01,2013-09-11 11:04:00,
2013-09-11 07:09:00,73.6,68.8,29.96,SW,221,5.0,5.0,85,0.00,,---,0.00,VWS V14.01,2013-09-11 11:09:00,
2013-09-11 07:14:00,73.5,68.7,29.96,SW,221,2.0,3.0,85,0.00,,---,0.00,VWS V14.01,2013-09-11 11:14:00,
2013-09-11 07:19:00,73.4,68.6,29.96,SW,234,2.0,5.0,85,0.00,,---,0.00,VWS V14.01,2013-09-11 11:19:00,
2013-09-11 07:24:00,73.3,68.9,29.96,SW,235,1.0,3.0,86,0.00,,---,0.00,VWS V14.01,2013-09-11 11:24:00,
2013-09-11 07:29:00,73.2,68.8,29.96,SW,234,0.0,5.0,86,0.00,,---,0.00,VWS V14.01,2013-09-11 11:29:00,
2013-09-11 07:34:00,73.1,68.7,29.96,SW,232,0.0,4.0,86,0.00,,---,0.00,VWS V14.01,2013-09-11 11:34:00,
2013-09-11 07:39:00,73.0,68.6,29.96,SW,219,3.0,5.0,86,0.00,,---,0.00,VWS V14.01,2013-09-11 11:39:00,
2013-09-11 07:44:00,73.0,68.9,29.96,SSW,201,5.0,5.0,87,0.00,,---,0.00,VWS V14.01,2013-09-11 11:44:00,
2013-09-11 07:49:00,73.0,68.9,29.97,SSW,207,3.0,6.0,87,0.00,,---,0.00,VWS V14.01,2013-09-11 11:49:00,
2013-09-11 07:54:00,73.1,69.0,29.97,SSW,207,4.0,5.0,87,0.00,,---,0.00,VWS V14.01,2013-09-11 11:54:00,
2013-09-11 07:59:00,73.2,69.1,29.97,SSW,207,3.0,3.0,87,0.00,,---,0.00,VWS V14.01,2013-09-11 11:59:00,
2013-09-11 08:04:00,73.4,69.3,29.97,SW,221,1.0,2.0,87,0.00,,---,0.00,VWS V14.01,2013-09-11 12:04:00,
2013-09-11 08:09:00,73.6,69.5,29.97,SW,228,3.0,4.0,87,0.00,,---,0.00,VWS V14.01,2013-09-11 12:09:00,
2013-09-11 08:14:00,73.8,69.7,29.98,SW,228,1.0,5.0,87,0.00,,---,0.00,VWS V14.01,2013-09-11 12:14:00,
2013-09-11 08:19:00,74.1,70.0,29.98,SW,228,2.0,2.0,87,0.00,,---,0.00,VWS V14.01,2013-09-11 12:19:00,
2013-09-11 08:24:00,74.4,69.9,29.98,SW,228,3.0,3.0,86,0.00,,---,0.00,VWS V14.01,2013-09-11 12:24:00,
2013-09-11 08:29:00,74.7,70.2,29.99,SW,226,2.0,5.0,86,0.00,,---,0.00,VWS V14.01,2013-09-11 12:29:00,
2013-09-11 08:34:00,75.1,70.3,29.98,SW,219,2.0,5.0,85,0.00,,---,0.00,VWS V14.01,2013-09-11 12:34:00,
2013-09-11 08:39:00,75.4,70.2,29.98,SW,219,1.0,3.0,84,0.00,,---,0.00,VWS V14.01,2013-09-11 12:39:00,
2013-09-11 08:44:00,75.6,70.4,29.98,SW,228,2.0,3.0,84,0.00,,---,0.00,VWS V14.01,2013-09-11 12:44:00,
2013-09-11 08:49:00,75.8,70.6,29.98,SW,229,3.0,5.0,84,0.00,,---,0.00,VWS V14.01,2013-09-11 12:49:00,
2013-09-11 08:54:00,76.0,70.8,29.98,SW,234,1.0,5.0,84,0.00,,---,0.00,VWS V14.01,2013-09-11 12:54:00,
2013-09-11 08:59:00,76.2,70.7,29.98,SW,223,3.0,5.0,83,0.00,,---,0.00,VWS V14.01,2013-09-11 12:59:00,
2013-09-11 09:04:00,76.5,70.6,29.98,WSW,242,4.0,5.0,82,0.00,,---,0.00,VWS V14.01,2013-09-11 13:04:00,
2013-09-11 09:09:00,76.8,70.9,29.98,SW,222,3.0,3.0,82,0.00,,---,0.00,VWS V14.01,2013-09-11 13:09:00,
2013-09-11 09:14:00,77.1,70.8,29.99,WSW,243,4.0,7.0,81,0.00,,---,0.00,VWS V14.01,2013-09-11 13:14:00,
2013-09-11 09:19:00,77.3,71.0,29.99,SW,221,4.0,7.0,81,0.00,,---,0.00,VWS V14.01,2013-09-11 13:19:00,
2013-09-11 09:24:00,77.6,71.3,29.98,SW,227,4.0,5.0,81,0.00,,---,0.00,VWS V14.01,2013-09-11 13:24:00,
2013-09-11 09:29:00,77.9,71.2,29.98,SW,227,6.0,6.0,80,0.00,,---,0.00,VWS V14.01,2013-09-11 13:29:00,
2013-09-11 09:34:00,78.2,71.5,29.98,SSW,213,2.0,5.0,80,0.00,,---,0.00,VWS V14.01,2013-09-11 13:34:00,
2013-09-11 09:39:00,78.6,71.9,29.98,WSW,240,4.0,6.0,80,0.00,,---,0.00,VWS V14.01,2013-09-11 13:39:00,
2013-09-11 09:43:00,79.0,71.9,29.99,WSW,246,6.0,6.0,79,0.00,,---,0.00,VWS V14.01,2013-09-11 13:43:00,
2013-09-11 09:48:00,79.3,71.8,29.99,WSW,248,3.0,10.0,78,0.00,,---,0.00,VWS V14.01,2013-09-11 13:48:00,
2013-09-11 09:53:00,79.7,71.5,29.99,WSW,239,3.0,4.0,76,0.00,,---,0.00,VWS V14.01,2013-09-11 13:53:00,
2013-09-11 09:59:00,80.1,72.2,29.98,SW,230,6.0,7.0,77,0.00,,---,0.00,VWS V14.01,2013-09-11 13:59:00,
2013-09-11 10:04:00,80.5,71.8,29.98,West,267,9.0,9.0,75,0.00,,---,0.00,VWS V14.01,2013-09-11 14:04:00,
2013-09-11 10:09:00,80.8,71.7,29.98,WSW,247,7.0,10.0,74,0.00,,---,0.00,VWS V14.01,2013-09-11 14:09:00,
2013-09-11 10:15:00,80.9,71.8,29.98,WSW,245,4.0,6.0,74,0.00,,---,0.00,VWS V14.01,2013-09-11 14:15:00,
2013-09-11 10:20:00,81.0,72.7,29.98,SSW,202,5.0,5.0,76,0.00,,---,0.00,VWS V14.01,2013-09-11 14:20:00,
2013-09-11 10:25:00,81.3,72.6,29.97,West,267,5.0,8.0,75,0.00,,---,0.00,VWS V14.01,2013-09-11 14:25:00,
2013-09-11 10:30:00,81.6,72.1,29.97,WSW,246,2.0,8.0,73,0.00,,---,0.00,VWS V14.01,2013-09-11 14:30:00,
2013-09-11 10:34:00,82.0,72.9,29.98,West,266,6.0,7.0,74,0.00,,---,0.00,VWS V14.01,2013-09-11 14:34:00,
2013-09-11 10:40:00,82.2,72.7,30.00,NW,309,8.0,9.0,73,0.00,,---,0.00,VWS V14.01,2013-09-11 14:40:00,
2013-09-11 10:45:00,82.4,72.9,30.00,West,261,3.0,7.0,73,0.00,,---,0.00,VWS V14.01,2013-09-11 14:45:00,
2013-09-11 10:50:00,82.2,72.3,30.01,West,269,4.0,8.0,72,0.00,,---,0.00,VWS V14.01,2013-09-11 14:50:00,
2013-09-11 10:54:00,81.8,72.3,30.00,West,267,4.0,6.0,73,0.00,,---,0.00,VWS V14.01,2013-09-11 14:54:00,
2013-09-11 10:59:00,81.4,72.3,30.01,West,265,4.0,9.0,74,0.00,,---,0.00,VWS V14.01,2013-09-11 14:59:00,
2013-09-11 11:04:00,81.0,71.9,30.00,West,277,4.0,6.0,74,0.00,,---,0.00,VWS V14.01,2013-09-11 15:04:00,
2013-09-11 11:09:00,80.9,72.2,29.99,WSW,246,2.0,7.0,75,0.00,,---,0.00,VWS V14.01,2013-09-11 15:09:00,
2013-09-11 11:14:00,81.0,72.3,29.99,WSW,257,4.0,8.0,75,0.00,,---,0.00,VWS V14.01,2013-09-11 15:14:00,
2013-09-11 11:19:00,81.2,72.9,29.99,West,274,7.0,7.0,76,0.00,,---,0.00,VWS V14.01,2013-09-11 15:19:00,
2013-09-11 11:24:00,81.5,72.4,29.99,WNW,283,0.0,5.0,74,0.00,,---,0.00,VWS V14.01,2013-09-11 15:24:00,
2013-09-11 11:29:00,81.6,71.7,29.99,NW,312,4.0,5.0,72,0.00,,---,0.00,VWS V14.01,2013-09-11 15:29:00,
2013-09-11 11:34:00,81.8,72.3,29.99,WSW,254,4.0,6.0,73,0.00,,---,0.00,VWS V14.01,2013-09-11 15:34:00,
2013-09-11 11:39:00,81.9,72.4,29.99,West,261,0.0,3.0,73,0.00,,---,0.00,VWS V14.01,2013-09-11 15:39:00,
2013-09-11 11:45:00,82.5,72.6,29.99,NW,317,1.0,4.0,72,0.00,,---,0.00,VWS V14.01,2013-09-11 15:45:00,
2013-09-11 11:51:00,82.9,72.5,29.98,WSW,258,3.0,6.0,71,0.00,,---,0.00,VWS V14.01,2013-09-11 15:51:00,
2013-09-11 11:56:00,83.1,73.6,29.98,WSW,248,1.0,3.0,73,0.00,,---,0.00,VWS V14.01,2013-09-11 15:56:00,
2013-09-11 12:01:00,83.4,71.7,29.97,WSW,248,1.0,4.0,68,0.00,,---,0.00,VWS V14.01,2013-09-11 16:01:00,
2013-09-11 12:06:00,83.8,72.1,29.97,SSW,211,4.0,4.0,68,0.00,,---,0.00,VWS V14.01,2013-09-11 16:06:00,
2013-09-11 12:11:00,83.9,72.7,29.97,SSW,205,4.0,5.0,69,0.00,,---,0.00,VWS V14.01,2013-09-11 16:11:00,
2013-09-11 12:16:00,83.9,71.8,29.97,SSW,207,3.0,5.0,67,0.00,,---,0.00,VWS V14.01,2013-09-11 16:16:00,
2013-09-11 12:21:00,83.9,72.7,29.97,SSW,205,1.0,4.0,69,0.00,,---,0.00,VWS V14.01,2013-09-11 16:21:00,
2013-09-11 12:26:00,84.1,71.5,29.97,SSW,210,2.0,5.0,66,0.00,,---,0.00,VWS V14.01,2013-09-11 16:26:00,
2013-09-11 12:31:00,84.1,71.5,29.96,SSW,207,2.0,5.0,66,0.00,,---,0.00,VWS V14.01,2013-09-11 16:31:00,
2013-09-11 12:36:00,84.2,71.6,29.97,SW,217,3.0,5.0,66,0.00,,---,0.00,VWS V14.01,2013-09-11 16:36:00,
2013-09-11 12:41:00,84.3,70.8,29.96,SW,219,3.0,7.0,64,0.00,,---,0.00,VWS V14.01,2013-09-11 16:41:00,
2013-09-11 12:46:00,84.6,71.1,29.96,SSW,202,1.0,5.0,64,0.00,,---,0.00,VWS V14.01,2013-09-11 16:46:00,
2013-09-11 12:51:00,85.0,71.5,29.95,South,181,6.0,9.0,64,0.00,,---,0.00,VWS V14.01,2013-09-11 16:51:00,
2013-09-11 12:56:00,85.4,72.8,29.95,SSE,165,2.0,7.0,66,0.00,,---,0.00,VWS V14.01,2013-09-11 16:56:00,
2013-09-11 13:01:00,85.8,73.6,29.95,SSW,200,4.0,6.0,67,0.00,,---,0.00,VWS V14.01,2013-09-11 17:01:00,
2013-09-11 13:06:00,85.8,73.6,29.95,South,178,7.0,11.0,67,0.00,,---,0.00,VWS V14.01,2013-09-11 17:06:00,
2013-09-11 13:11:00,85.4,73.2,29.94,SSE,165,5.0,9.0,67,0.00,,---,0.00,VWS V14.01,2013-09-11 17:11:00,
2013-09-11 13:16:00,85.2,73.9,29.95,South,185,3.0,7.0,69,0.00,,---,0.00,VWS V14.01,2013-09-11 17:16:00,
2013-09-11 13:21:00,85.4,72.8,29.95,South,181,0.0,8.0,66,0.00,,---,0.00,VWS V14.01,2013-09-11 17:21:00,
2013-09-11 13:26:00,85.7,72.1,29.95,WSW,242,3.0,7.0,64,0.00,,---,0.00,VWS V14.01,2013-09-11 17:26:00,
2013-09-11 13:31:00,86.3,72.2,29.95,SW,225,2.0,6.0,63,0.00,,---,0.00,VWS V14.01,2013-09-11 17:31:00,
2013-09-11 13:36:00,86.6,72.0,29.95,SW,225,4.0,4.0,62,0.00,,---,0.00,VWS V14.01,2013-09-11 17:36:00,
2013-09-11 13:41:00,87.0,72.9,29.96,SW,220,4.0,8.0,63,0.00,,---,0.00,VWS V14.01,2013-09-11 17:41:00,
2013-09-11 13:46:00,87.4,72.8,29.96,SW,236,0.0,7.0,62,0.00,,---,0.00,VWS V14.01,2013-09-11 17:46:00,
2013-09-11 13:51:00,87.9,74.7,29.96,SSW,204,4.0,7.0,65,0.00,,---,0.00,VWS V14.01,2013-09-11 17:51:00,
2013-09-11 13:56:00,88.2,72.6,29.95,SW,222,5.0,7.0,60,0.00,,---,0.00,VWS V14.01,2013-09-11 17:56:00,
2013-09-11 14:01:00,88.2,72.6,29.96,SSW,203,4.0,6.0,60,0.00,,---,0.00,VWS V14.01,2013-09-11 18:01:00,
2013-09-11 14:06:00,88.0,71.4,29.95,WSW,238,3.0,8.0,58,0.00,,---,0.00,VWS V14.01,2013-09-11 18:06:00,
2013-09-11 14:11:00,87.9,71.8,29.96,SW,221,6.0,6.0,59,0.00,,---,0.00,VWS V14.01,2013-09-11 18:11:00,
2013-09-11 14:16:00,87.7,71.1,29.95,WSW,250,4.0,7.0,58,0.00,,---,0.00,VWS V14.01,2013-09-11 18:16:00,
2013-09-11 14:21:00,87.4,70.3,29.95,WSW,238,4.0,8.0,57,0.00,,---,0.00,VWS V14.01,2013-09-11 18:21:00,
2013-09-11 14:26:00,87.2,72.6,29.95,SSW,192,5.0,6.0,62,0.00,,---,0.00,VWS V14.01,2013-09-11 18:26:00,
2013-09-11 14:31:00,87.0,71.9,29.95,WSW,258,3.0,5.0,61,0.00,,---,0.00,VWS V14.01,2013-09-11 18:31:00,
2013-09-11 14:36:00,87.1,72.0,29.95,WSW,253,5.0,8.0,61,0.00,,---,0.00,VWS V14.01,2013-09-11 18:36:00,
2013-09-11 14:41:00,87.1,71.0,29.95,SW,227,7.0,9.0,59,0.00,,---,0.00,VWS V14.01,2013-09-11 18:41:00,
2013-09-11 14:46:00,87.2,70.6,29.95,WNW,296,8.0,8.0,58,0.00,,---,0.00,VWS V14.01,2013-09-11 18:46:00,
2013-09-11 14:51:00,87.1,70.5,29.95,WNW,282,2.0,6.0,58,0.00,,---,0.00,VWS V14.01,2013-09-11 18:51:00,
2013-09-11 14:56:00,86.9,70.9,29.95,West,275,5.0,6.0,59,0.00,,---,0.00,VWS V14.01,2013-09-11 18:56:00,
2013-09-11 15:01:00,86.7,69.7,29.95,West,259,6.0,8.0,57,0.00,,---,0.00,VWS V14.01,2013-09-11 19:01:00,
2013-09-11 15:06:00,86.4,69.9,29.95,West,265,4.0,6.0,58,0.00,,---,0.00,VWS V14.01,2013-09-11 19:06:00,
2013-09-11 15:11:00,86.0,69.0,29.95,WNW,302,5.0,8.0,57,0.00,,---,0.00,VWS V14.01,2013-09-11 19:11:00,
2013-09-11 15:15:00,85.6,69.6,29.95,WSW,257,5.0,7.0,59,0.00,,---,0.00,VWS V14.01,2013-09-11 19:15:00,
2013-09-11 15:20:00,85.3,69.8,29.95,WNW,284,6.0,6.0,60,0.00,,---,0.00,VWS V14.01,2013-09-11 19:20:00,
2013-09-11 15:25:00,85.0,68.6,29.95,West,262,4.0,7.0,58,0.00,,---,0.00,VWS V14.01,2013-09-11 19:25:00,
2013-09-11 15:30:00,84.7,68.3,29.95,West,265,5.0,6.0,58,0.00,,---,0.00,VWS V14.01,2013-09-11 19:30:00,
2013-09-11 15:35:00,84.5,69.1,29.95,West,273,4.0,6.0,60,0.00,,---,0.00,VWS V14.01,2013-09-11 19:35:00,
2013-09-11 15:40:00,84.4,69.5,29.95,West,269,4.0,5.0,61,0.00,,---,0.00,VWS V14.01,2013-09-11 19:40:00,
2013-09-11 15:45:00,84.4,68.5,29.95,West,281,2.0,6.0,59,0.00,,---,0.00,VWS V14.01,2013-09-11 19:45:00,
2013-09-11 15:50:00,84.5,69.1,29.95,West,275,5.0,7.0,60,0.00,,---,0.00,VWS V14.01,2013-09-11 19:50:00,
2013-09-11 15:55:00,84.7,68.8,29.95,West,274,3.0,8.0,59,0.00,,---,0.00,VWS V14.01,2013-09-11 19:55:00,
2013-09-11 16:00:00,84.6,67.7,29.95,West,265,8.0,10.0,57,0.00,,---,0.00,VWS V14.01,2013-09-11 20:00:00,
2013-09-11 16:05:00,84.3,66.4,29.96,NW,305,4.0,8.0,55,0.00,,---,0.00,VWS V14.01,2013-09-11 20:05:00,
2013-09-11 16:10:00,83.8,65.4,29.96,NNW,328,6.0,12.0,54,0.00,,---,0.00,VWS V14.01,2013-09-11 20:10:00,
2013-09-11 16:15:00,83.0,64.7,29.96,WNW,292,3.0,10.0,54,0.00,,---,0.00,VWS V14.01,2013-09-11 20:15:00,
2013-09-11 16:20:00,82.3,65.1,29.96,NW,311,4.0,10.0,56,0.00,,---,0.00,VWS V14.01,2013-09-11 20:20:00,
2013-09-11 16:25:00,81.5,66.3,29.97,NW,325,9.0,14.0,60,0.00,,---,0.00,VWS V14.01,2013-09-11 20:25:00,
2013-09-11 16:30:00,79.8,68.3,29.97,WNW,298,8.0,11.0,68,0.00,,---,0.00,VWS V14.01,2013-09-11 20:30:00,
2013-09-11 16:35:00,77.6,68.3,29.97,West,275,10.0,14.0,73,0.00,,---,0.00,VWS V14.01,2013-09-11 20:35:00,
2013-09-11 16:40:00,75.6,67.9,29.98,WNW,288,3.0,7.0,77,0.01,,---,0.01,VWS V14.01,2013-09-11 20:40:00,
2013-09-11 16:45:00,73.9,68.1,29.98,WNW,297,10.0,15.0,82,0.09,,---,0.09,VWS V14.01,2013-09-11 20:45:00,
2013-09-11 16:50:00,72.4,68.3,29.98,West,280,1.0,8.0,87,0.16,,---,0.16,VWS V14.01,2013-09-11 20:50:00,
2013-09-11 16:55:00,71.7,68.3,29.97,West,273,1.0,3.0,89,0.18,,---,0.18,VWS V14.01,2013-09-11 20:55:00,
2013-09-11 17:00:00,71.3,68.5,29.96,West,269,0.0,0.0,91,0.19,,---,0.19,VWS V14.01,2013-09-11 21:00:00,
2013-09-11 17:05:00,71.2,68.4,29.95,West,269,0.0,0.0,91,0.19,,---,0.19,VWS V14.01,2013-09-11 21:05:00,
2013-09-11 17:10:00,71.1,68.7,29.95,West,269,0.0,0.0,92,0.19,,---,0.19,VWS V14.01,2013-09-11 21:10:00,
2013-09-11 17:15:00,71.1,69.0,29.96,West,269,0.0,0.0,93,0.19,,---,0.19,VWS V14.01,2013-09-11 21:15:00,
2013-09-11 17:20:00,71.2,69.1,29.96,West,269,0.0,2.0,93,0.19,,---,0.19,VWS V14.01,2013-09-11 21:20:00,
2013-09-11 17:25:00,71.3,69.2,29.96,NW,309,0.0,4.0,93,0.19,,---,0.19,VWS V14.01,2013-09-11 21:25:00,
2013-09-11 17:30:00,71.2,69.1,29.95,WNW,302,1.0,4.0,93,0.19,,---,0.19,VWS V14.01,2013-09-11 21:30:00,
2013-09-11 17:35:00,71.2,69.1,29.95,WNW,302,0.0,2.0,93,0.19,,---,0.19,VWS V14.01,2013-09-11 21:35:00,
2013-09-11 17:40:00,71.3,69.2,29.95,WNW,301,1.0,4.0,93,0.18,,---,0.19,VWS V14.01,2013-09-11 21:40:00,
2013-09-11 17:45:00,71.4,69.6,29.94,WNW,301,0.0,1.0,94,0.14,,---,0.19,VWS V14.01,2013-09-11 21:45:00,
2013-09-11 17:50:00,71.5,69.7,29.94,WNW,301,0.0,0.0,94,0.06,,---,0.19,VWS V14.01,2013-09-11 21:50:00,
2013-09-11 17:55:00,71.7,69.9,29.94,WNW,301,0.0,0.0,94,0.02,,---,0.19,VWS V14.01,2013-09-11 21:55:00,
2013-09-11 18:00:00,71.9,70.1,29.94,WNW,300,0.0,0.0,94,0.01,,---,0.19,VWS V14.01,2013-09-11 22:00:00,
2013-09-11 18:05:00,72.0,70.2,29.94,WNW,300,2.0,2.0,94,0.01,,---,0.20,VWS V14.01,2013-09-11 22:05:00,
2013-09-11 18:10:00,72.2,70.4,29.94,WNW,301,1.0,4.0,94,0.01,,---,0.20,VWS V14.01,2013-09-11 22:10:00,
2013-09-11 18:15:00,72.3,70.5,29.94,WNW,301,0.0,0.0,94,0.01,,---,0.20,VWS V14.01,2013-09-11 22:15:00,
2013-09-11 18:20:00,72.4,70.6,29.94,WNW,301,0.0,0.0,94,0.01,,---,0.20,VWS V14.01,2013-09-11 22:20:00,
2013-09-11 18:25:00,72.6,70.8,29.94,WNW,301,0.0,2.0,94,0.01,,---,0.20,VWS V14.01,2013-09-11 22:25:00,
2013-09-11 18:30:00,72.7,70.9,29.94,WNW,301,0.0,1.0,94,0.01,,---,0.20,VWS V14.01,2013-09-11 22:30:00,
2013-09-11 18:35:00,72.9,71.1,29.94,WNW,301,0.0,1.0,94,0.01,,---,0.20,VWS V14.01,2013-09-11 22:35:00,
2013-09-11 18:40:00,73.0,70.9,29.94,WNW,301,0.0,0.0,93,0.01,,---,0.20,VWS V14.01,2013-09-11 22:40:00,
2013-09-11 18:45:00,73.1,71.0,29.94,WNW,300,0.0,0.0,93,0.01,,---,0.20,VWS V14.01,2013-09-11 22:45:00,
2013-09-11 18:50:00,73.2,71.1,29.94,WNW,301,0.0,0.0,93,0.01,,---,0.20,VWS V14.01,2013-09-11 22:50:00,
2013-09-11 18:55:00,73.3,70.8,29.94,WNW,300,0.0,0.0,92,0.01,,---,0.20,VWS V14.01,2013-09-11 22:55:00,
2013-09-11 19:00:00,73.4,70.9,29.94,WNW,300,0.0,0.0,92,0.01,,---,0.20,VWS V14.01,2013-09-11 23:00:00,
2013-09-11 19:05:00,73.5,71.0,29.94,WNW,300,0.0,0.0,92,0.00,,---,0.20,VWS V14.01,2013-09-11 23:05:00,
2013-09-11 19:10:00,73.5,71.0,29.94,WNW,300,0.0,0.0,92,0.00,,---,0.20,VWS V14.01,2013-09-11 23:10:00,
2013-09-11 19:15:00,73.6,71.1,29.94,WNW,300,0.0,0.0,92,0.00,,---,0.20,VWS V14.01,2013-09-11 23:15:00,
2013-09-11 19:20:00,73.6,71.1,29.94,WNW,300,0.0,0.0,92,0.00,,---,0.20,VWS V14.01,2013-09-11 23:20:00,
2013-09-11 19:25:00,73.5,71.0,29.94,WNW,300,0.0,0.0,92,0.00,,---,0.20,VWS V14.01,2013-09-11 23:25:00,
2013-09-11 19:30:00,73.5,71.0,29.94,WNW,300,0.0,0.0,92,0.00,,---,0.20,VWS V14.01,2013-09-11 23:30:00,
2013-09-11 19:35:00,73.4,70.9,29.94,WNW,300,0.0,0.0,92,0.00,,---,0.20,VWS V14.01,2013-09-11 23:35:00,
2013-09-11 19:40:00,73.3,70.8,29.95,WNW,300,0.0,0.0,92,0.00,,---,0.20,VWS V14.01,2013-09-11 23:40:00,
2013-09-11 19:45:00,73.2,70.7,29.95,WNW,300,0.0,0.0,92,0.00,,---,0.20,VWS V14.01,2013-09-11 23:45:00,
2013-09-11 19:50:00,73.0,70.5,29.95,WNW,300,0.0,0.0,92,0.00,,---,0.20,VWS V14.01,2013-09-11 23:50:00,
2013-09-11 19:55:00,72.9,70.4,29.95,WNW,300,0.0,0.0,92,0.00,,---,0.20,VWS V14.01,2013-09-11 23:55:00,
2013-09-11 20:00:00,72.7,70.2,29.95,WNW,300,0.0,0.0,92,0.00,,---,0.20,VWS V14.01,2013-09-12 00:00:00,
2013-09-11 20:05:00,72.6,70.2,29.95,WNW,300,0.0,0.0,92,0.00,,---,0.20,VWS V14.01,2013-09-12 00:05:00,
2013-09-11 20:10:00,72.4,69.9,29.94,WNW,300,0.0,0.0,92,0.00,,---,0.20,VWS V14.01,2013-09-12 00:10:00,
2013-09-11 20:15:00,72.1,69.7,29.94,WNW,300,0.0,0.0,92,0.00,,---,0.20,VWS V14.01,2013-09-12 00:15:00,
2013-09-11 20:20:00,71.9,69.4,29.94,WNW,300,0.0,1.0,92,0.00,,---,0.20,VWS V14.01,2013-09-12 00:20:00,
2013-09-11 20:25:00,71.7,69.3,29.94,WNW,300,0.0,1.0,92,0.00,,---,0.20,VWS V14.01,2013-09-12 00:25:00,
2013-09-11 20:31:00,71.5,69.1,29.94,WNW,300,0.0,0.0,92,0.00,,---,0.20,VWS V14.01,2013-09-12 00:31:00,
2013-09-11 20:36:00,71.2,68.8,29.94,WNW,300,0.0,0.0,92,0.00,,---,0.20,VWS V14.01,2013-09-12 00:36:00,
2013-09-11 20:41:00,71.0,68.6,29.94,WNW,300,0.0,0.0,92,0.00,,---,0.20,VWS V14.01,2013-09-12 00:41:00,
2013-09-11 20:46:00,70.9,68.5,29.94,WNW,300,0.0,0.0,92,0.00,,---,0.20,VWS V14.01,2013-09-12 00:46:00,
2013-09-11 20:51:00,70.7,68.3,29.94,WNW,300,0.0,0.0,92,0.00,,---,0.20,VWS V14.01,2013-09-12 00:51:00,
2013-09-11 20:56:00,70.5,68.1,29.94,WNW,300,0.0,0.0,92,0.00,,---,0.20,VWS V14.01,2013-09-12 00:56:00,
2013-09-11 21:01:00,70.3,67.9,29.94,WNW,300,0.0,0.0,92,0.00,,---,0.20,VWS V14.01,2013-09-12 01:01:00,
2013-09-11 21:06:00,70.1,67.7,29.94,WNW,300,0.0,0.0,92,0.00,,---,0.20,VWS V14.01,2013-09-12 01:06:00,
2013-09-11 21:11:00,70.0,67.6,29.94,WNW,300,0.0,0.0,92,0.00,,---,0.20,VWS V14.01,2013-09-12 01:11:00,
2013-09-11 21:16:00,69.8,67.4,29.94,WNW,300,0.0,0.0,92,0.00,,---,0.20,VWS V14.01,2013-09-12 01:16:00,
2013-09-11 21:21:00,69.6,67.5,29.94,WNW,300,0.0,0.0,93,0.00,,---,0.20,VWS V14.01,2013-09-12 01:21:00,
2013-09-11 21:26:00,69.4,67.3,29.95,WNW,300,0.0,0.0,93,0.00,,---,0.20,VWS V14.01,2013-09-12 01:26:00,
2013-09-11 21:31:00,69.2,67.1,29.94,WNW,300,0.0,0.0,93,0.00,,---,0.20,VWS V14.01,2013-09-12 01:31:00,
2013-09-11 21:36:00,69.1,66.7,29.94,WNW,300,0.0,0.0,92,0.00,,---,0.20,VWS V14.01,2013-09-12 01:36:00,
2013-09-11 21:41:00,68.9,66.8,29.94,WNW,300,0.0,0.0,93,0.00,,---,0.20,VWS V14.01,2013-09-12 01:41:00,
2013-09-11 21:46:00,68.8,66.7,29.94,WNW,300,0.0,0.0,93,0.00,,---,0.20,VWS V14.01,2013-09-12 01:46:00,
2013-09-11 21:51:00,68.7,66.6,29.95,WNW,300,0.0,0.0,93,0.00,,---,0.20,VWS V14.01,2013-09-12 01:51:00,
2013-09-11 21:56:00,68.6,66.5,29.95,WNW,300,1.0,1.0,93,0.00,,---,0.20,VWS V14.01,2013-09-12 01:56:00,
2013-09-11 22:01:00,68.5,66.7,29.94,WNW,300,1.0,3.0,94,0.00,,---,0.20,VWS V14.01,2013-09-12 02:01:00,
2013-09-11 22:06:00,68.5,66.7,29.94,WNW,300,0.0,0.0,94,0.00,,---,0.20,VWS V14.01,2013-09-12 02:06:00,
2013-09-11 22:11:00,68.4,66.6,29.94,WNW,300,2.0,2.0,94,0.00,,---,0.20,VWS V14.01,2013-09-12 02:11:00,
2013-09-11 22:16:00,68.4,66.9,29.94,WNW,300,0.0,1.0,95,0.00,,---,0.20,VWS V14.01,2013-09-12 02:16:00,
2013-09-11 22:21:00,68.4,66.9,29.94,WNW,300,0.0,0.0,95,0.00,,---,0.20,VWS V14.01,2013-09-12 02:21:00,
2013-09-11 22:26:00,68.4,66.9,29.94,WNW,300,0.0,0.0,95,0.00,,---,0.20,VWS V14.01,2013-09-12 02:26:00,
2013-09-11 22:31:00,68.4,66.9,29.94,WNW,300,0.0,0.0,95,0.00,,---,0.20,VWS V14.01,2013-09-12 02:31:00,
2013-09-11 22:36:00,68.4,66.9,29.94,WNW,300,0.0,0.0,95,0.00,,---,0.20,VWS V14.01,2013-09-12 02:36:00,
2013-09-11 22:41:00,68.3,66.8,29.93,WNW,300,0.0,0.0,95,0.00,,---,0.20,VWS V14.01,2013-09-12 02:41:00,
2013-09-11 22:46:00,68.3,66.8,29.93,WNW,300,0.0,0.0,95,0.00,,---,0.20,VWS V14.01,2013-09-12 02:46:00,
2013-09-11 22:51:00,68.3,66.8,29.93,WNW,300,0.0,1.0,95,0.00,,---,0.20,VWS V14.01,2013-09-12 02:51:00,
2013-09-11 22:56:00,68.3,66.8,29.93,WNW,300,0.0,0.0,95,0.00,,---,0.20,VWS V14.01,2013-09-12 02:56:00,
2013-09-11 23:01:00,68.2,66.7,29.93,WNW,300,0.0,0.0,95,0.00,,---,0.20,VWS V14.01,2013-09-12 03:01:00,
2013-09-11 23:06:00,68.2,66.7,29.94,WNW,300,0.0,0.0,95,0.00,,---,0.20,VWS V14.01,2013-09-12 03:06:00,
2013-09-11 23:11:00,68.2,66.7,29.93,WNW,300,0.0,0.0,95,0.00,,---,0.20,VWS V14.01,2013-09-12 03:11:00,
2013-09-11 23:16:00,68.2,66.7,29.94,WNW,300,0.0,0.0,95,0.00,,---,0.20,VWS V14.01,2013-09-12 03:16:00,
2013-09-11 23:21:00,68.2,67.0,29.94,WNW,300,0.0,0.0,96,0.00,,---,0.20,VWS V14.01,2013-09-12 03:21:00,
2013-09-11 23:26:00,68.2,67.0,29.94,WNW,300,0.0,0.0,96,0.00,,---,0.20,VWS V14.01,2013-09-12 03:26:00,
2013-09-11 23:31:00,68.2,67.0,29.94,WNW,300,0.0,0.0,96,0.00,,---,0.20,VWS V14.01,2013-09-12 03:31:00,
2013-09-11 23:36:00,68.2,66.7,29.93,WNW,300,0.0,0.0,95,0.00,,---,0.20,VWS V14.01,2013-09-12 03:36:00,
2013-09-11 23:41:00,68.2,67.0,29.93,WNW,300,0.0,0.0,96,0.00,,---,0.20,VWS V14.01,2013-09-12 03:41:00,
2013-09-11 23:46:00,68.2,67.0,29.93,WNW,300,0.0,0.0,96,0.00,,---,0.20,VWS V14.01,2013-09-12 03:46:00,
2013-09-11 23:51:00,68.2,67.0,29.93,WNW,300,0.0,0.0,96,0.00,,---,0.20,VWS V14.01,2013-09-12 03:51:00,
2013-09-11 23:56:00,68.2,67.0,29.93,WNW,300,0.0,0.0,96,0.00,,---,0.20,VWS V14.01,2013-09-12 03:56:00,